Flag for U.S.A. Weather past 2 weeks in Montpelier, Vermont, U.S.A.

Now
39 °F

Sunny.


Feels Like: 36 °F
Forecast: 34 / 40 °F
Wind: 5 mph from Northwest

Location: Knapp State Airport

Current Time: Dec 26, 2014 at 1:38:50 PM

Latest Report: Dec 26, 2014 at 12:51 PM


Visibility: 10 mi

Pressure: 30.12 "Hg

Humidity: 62%

Dew point: 27 °F

Location of MontpelierLocation

Historic Weather in Montpelier — Graph

°F

Montpelier temperature yesterday

Maximum temperature yesterday: 46 °F (at 6:00 AM)
Minimum temperature yesterday: 36 °F (at 4:51 AM)
Average temperature yesterday: 41 °F

Past Weeks' High & Low Weather Summary

 TemperatureHumidityPressure
High46 °F (Dec 25, 6:00 AM)100% (Dec 14, 3:51 AM)30.45 "Hg (Dec 14, 3:51 AM)
Low7 °F (Dec 20, 5:51 AM)55% (Dec 25, 10:51 PM)29.41 "Hg (Dec 25, 4:51 AM)
Average29 °F89%30.04 "Hg
* Reported Dec 11 11:51 AM — Dec 26 11:51 AM, Montpelier, Weather by CustomWeather, © 2014

Note: Actual official high and low records may vary slightly from our data, if they occured in-between our weather recording intervals... More about our weather records

Advertising

Montpelier weather history for previous 24 hours

 ConditionsComfort  
Time TempWeatherWind HumidityBarometerVisibility
11:51 AM
Dec 26
39 °FPassing clouds.10 mph60%30.15 "Hg10 mi
10:51 AM38 °FPartly sunny.9 mph63%30.16 "Hg10 mi
9:51 AM38 °FOvercast.13 mph63%30.18 "Hg10 mi
8:51 AM37 °FOvercast.9 mph62%30.17 "Hg10 mi
7:51 AM37 °FOvercast.7 mph62%30.14 "Hg10 mi
6:51 AM37 °FOvercast.5 mph65%30.11 "Hg10 mi
5:51 AM37 °FOvercast.8 mph62%30.09 "Hg10 mi
4:51 AM37 °FOvercast.12 mph62%30.07 "Hg10 mi
3:51 AM37 °FOvercast.15 mph65%30.05 "Hg10 mi
2:51 AM37 °FOvercast.10 mph62%30.04 "Hg10 mi
1:51 AM37 °FOvercast.13 mph62%30.03 "Hg10 mi
12:51 AM38 °FOvercast.14 mph58%30.00 "Hg10 mi
11:51 PM
Dec 25
38 °FOvercast.22 mph58%29.97 "Hg10 mi
10:51 PM38 °FOvercast.20 mph55%29.94 "Hg10 mi
9:51 PM38 °FOvercast.12 mph60%29.93 "Hg10 mi
8:51 PM39 °FPassing clouds.13 mph57%29.90 "Hg10 mi
7:51 PM39 °FOvercast.13 mph57%29.87 "Hg10 mi
6:51 PM39 °FMostly cloudy.10 mph62%29.83 "Hg10 mi
5:51 PM40 °FMostly cloudy.13 mph63%29.78 "Hg10 mi
4:51 PM40 °FMostly cloudy.10 mph63%29.75 "Hg10 mi
3:51 PM41 °FMore clouds than sun.10 mph60%29.70 "Hg10 mi
2:51 PM41 °FLight rain. Overcast.10 mph65%29.65 "Hg10 mi
1:51 PM42 °FMostly cloudy.9 mph60%29.61 "Hg10 mi
Weather by CustomWeather, © 2014

See weather overviewHow to use our weather pages